TimeAKST,TemperatureF,Dew PointF,Humidity,Sea Level PressureIn,VisibilityMPH,Wind Direction,Wind SpeedMPH,Gust SpeedMPH,PrecipitationIn,Events,Conditions,WindDirDegrees,DateUTC
12:03 AM,17.6,8.6,68,29.38,10.0,Calm,Calm,-,N/A,,Scattered Clouds,0,2013-01-03 09:03:00
12:53 AM,16.0,6.1,65,29.40,10.0,Calm,Calm,-,N/A,,Scattered Clouds,0,2013-01-03 09:53:00
1:53 AM,12.0,1.9,64,29.40,10.0,NW,3.5,-,N/A,,Scattered Clouds,310,2013-01-03 10:53:00
3:53 AM,21.9,12.0,66,29.39,10.0,Calm,Calm,-,N/A,,Mostly Cloudy,0,2013-01-03 12:53:00
4:53 AM,25.0,12.0,58,29.39,10.0,West,4.6,-,N/A,,Mostly Cloudy,260,2013-01-03 13:53:00
5:53 AM,19.0,9.0,65,29.40,10.0,WSW,4.6,-,N/A,,Mostly Cloudy,250,2013-01-03 14:53:00
6:53 AM,19.9,9.0,62,29.41,10.0,Calm,Calm,-,N/A,,Overcast,0,2013-01-03 15:53:00
7:53 AM,19.0,10.0,68,29.42,10.0,Calm,Calm,-,N/A,,Overcast,0,2013-01-03 16:53:00
8:53 AM,19.9,10.0,65,29.44,10.0,Calm,Calm,-,N/A,,Overcast,0,2013-01-03 17:53:00
9:53 AM,16.0,7.0,68,29.45,10.0,Calm,Calm,-,N/A,,Mostly Cloudy,0,2013-01-03 18:53:00
10:53 AM,12.9,3.9,67,29.46,10.0,Calm,Calm,-,N/A,,Mostly Cloudy,0,2013-01-03 19:53:00
11:53 AM,12.2,8.1,83,29.46,10.0,Calm,Calm,-,N/A,,Mostly Cloudy,0,2013-01-03 20:53:00
12:53 PM,10.4,8.2,91,29.45,10.0,Calm,Calm,-,N/A,,Mostly Cloudy,0,2013-01-03 21:53:00
1:53 PM,10.9,6.8,83,29.45,10.0,Calm,Calm,-,N/A,,Mostly Cloudy,0,2013-01-03 22:53:00
2:53 PM,13.1,7.0,77,29.45,10.0,Calm,Calm,-,N/A,,Mostly Cloudy,0,2013-01-03 23:53:00
3:53 PM,12.2,9.0,87,29.46,10.0,Calm,Calm,-,N/A,,Mostly Cloudy,0,2013-01-04 00:53:00
4:53 PM,16.0,-2.9,43,29.49,10.0,Calm,Calm,-,N/A,,Clear,0,2013-01-04 01:53:00
5:53 PM,12.9,3.9,67,29.50,10.0,East,3.5,-,N/A,,Clear,80,2013-01-04 02:53:00
6:53 PM,7.0,-2.0,67,29.51,10.0,Calm,Calm,-,N/A,,Clear,0,2013-01-04 03:53:00
7:53 PM,5.0,-2.0,73,29.52,10.0,Calm,Calm,-,N/A,,Clear,0,2013-01-04 04:53:00
8:53 PM,6.1,-2.0,69,29.53,10.0,NNE,3.5,-,N/A,,Clear,30,2013-01-04 05:53:00
9:53 PM,10.0,-0.0,64,29.54,10.0,Calm,Calm,-,N/A,,Clear,0,2013-01-04 06:53:00
10:53 PM,8.1,-2.0,64,29.55,10.0,Calm,Calm,-,N/A,,Clear,0,2013-01-04 07:53:00
11:53 PM,7.0,-2.0,67,29.57,10.0,Calm,Calm,-,N/A,,Clear,0,2013-01-04 08:53:00